Year,Month,Day,Hour,Minute,Value (Times are PST for temperature in C)
2011,02,22,00,00,0.00
2011,02,22,00,01,0.00
2011,02,22,00,02,0.00
2011,02,22,00,03,0.00
2011,02,22,00,04,0.00
2011,02,22,00,05,-0.10
2011,02,22,00,06,-0.10
2011,02,22,00,07,-0.10
2011,02,22,00,08,-0.10
2011,02,22,00,09,-0.10
2011,02,22,00,10,-0.10
2011,02,22,00,11,-0.20
2011,02,22,00,12,-0.20
2011,02,22,00,13,-0.20
2011,02,22,00,14,-0.20
2011,02,22,00,15,-0.20
2011,02,22,00,16,-0.20
2011,02,22,00,17,-0.20
2011,02,22,00,18,-0.20
2011,02,22,00,19,-0.20
2011,02,22,00,20,-0.20
2011,02,22,00,21,-0.20
2011,02,22,00,22,-0.30
2011,02,22,00,23,-0.30
2011,02,22,00,24,-0.30
2011,02,22,00,25,-0.30
2011,02,22,00,26,-0.30
2011,02,22,00,27,-0.30
2011,02,22,00,28,-0.30
2011,02,22,00,29,-0.30
2011,02,22,00,30,-0.20
2011,02,22,00,31,-0.20
2011,02,22,00,32,-0.10
2011,02,22,00,33,-0.10
2011,02,22,00,34,-0.10
2011,02,22,00,35,-0.10
2011,02,22,00,36,-0.10
2011,02,22,00,37,-0.10
2011,02,22,00,38,-0.10
2011,02,22,00,39,-0.10
2011,02,22,00,40,-0.10
2011,02,22,00,41,-0.10
2011,02,22,00,42,-0.10
2011,02,22,00,43,-0.10
2011,02,22,00,44,-0.10
2011,02,22,00,45,-0.10
2011,02,22,00,46,-0.10
2011,02,22,00,47,-0.20
2011,02,22,00,48,-0.20
2011,02,22,00,49,-0.20
2011,02,22,00,50,-0.30
2011,02,22,00,51,-0.30
2011,02,22,00,52,-0.30
2011,02,22,00,53,-0.30
2011,02,22,00,54,-0.30
2011,02,22,00,55,-0.30
2011,02,22,00,56,-0.40
2011,02,22,00,57,-0.40
2011,02,22,00,58,-0.40
2011,02,22,00,59,-0.50
2011,02,22,01,00,-0.50
2011,02,22,01,01,-0.40
2011,02,22,01,02,-0.40
2011,02,22,01,03,-0.50
2011,02,22,01,04,-0.50
2011,02,22,01,05,-0.50
2011,02,22,01,06,-0.40
2011,02,22,01,07,-0.40
2011,02,22,01,08,-0.40
2011,02,22,01,09,-0.40
2011,02,22,01,10,-0.30
2011,02,22,01,11,-0.30
2011,02,22,01,12,-0.20
2011,02,22,01,13,-0.20
2011,02,22,01,14,-0.20
2011,02,22,01,15,-0.20
2011,02,22,01,16,-0.20
2011,02,22,01,17,-0.20
2011,02,22,01,18,-0.20
2011,02,22,01,19,-0.20
2011,02,22,01,20,-0.20
2011,02,22,01,21,-0.20
2011,02,22,01,22,-0.20
2011,02,22,01,23,-0.20
2011,02,22,01,24,-0.30
2011,02,22,01,25,-0.30
2011,02,22,01,26,-0.30
2011,02,22,01,27,-0.30
2011,02,22,01,28,-0.40
2011,02,22,01,29,-0.40
2011,02,22,01,30,-0.40
2011,02,22,01,31,-0.40
2011,02,22,01,32,-0.40
2011,02,22,01,33,-0.50
2011,02,22,01,34,-0.50
2011,02,22,01,35,-0.40
2011,02,22,01,36,-0.50
2011,02,22,01,37,-0.50
2011,02,22,01,38,-0.50
2011,02,22,01,39,-0.60
2011,02,22,01,40,-0.60
2011,02,22,01,41,-0.60
2011,02,22,01,42,-0.70
2011,02,22,01,43,-0.70
2011,02,22,01,44,-0.80
2011,02,22,01,45,-0.80
2011,02,22,01,46,-0.80
2011,02,22,01,47,-0.90
2011,02,22,01,48,-0.90
2011,02,22,01,49,-0.90
2011,02,22,01,50,-0.90
2011,02,22,01,51,-0.90
2011,02,22,01,52,-0.90
2011,02,22,01,53,-0.90
2011,02,22,01,54,-0.90
2011,02,22,01,55,-0.90
2011,02,22,01,56,-0.90
2011,02,22,01,57,-0.90
2011,02,22,01,58,-0.90
2011,02,22,01,59,-0.90
2011,02,22,02,00,-0.90
2011,02,22,02,01,-0.90
2011,02,22,02,02,-0.90
2011,02,22,02,03,-0.90
2011,02,22,02,04,-0.90
2011,02,22,02,05,-0.90
2011,02,22,02,06,-0.90
2011,02,22,02,07,-0.90
2011,02,22,02,08,-0.90
2011,02,22,02,09,-1.00
2011,02,22,02,10,-1.00
2011,02,22,02,11,-1.00
2011,02,22,02,12,-1.00
2011,02,22,02,13,-1.00
2011,02,22,02,14,-1.00
2011,02,22,02,15,-1.00
2011,02,22,02,16,-1.00
2011,02,22,02,17,-0.90
2011,02,22,02,18,-1.00
2011,02,22,02,19,-1.00
2011,02,22,02,20,-1.00
2011,02,22,02,21,-1.00
2011,02,22,02,22,-1.00
2011,02,22,02,23,-1.00
2011,02,22,02,24,-1.10
2011,02,22,02,27,-1.10
2011,02,22,02,28,-1.10
2011,02,22,02,29,-1.20
2011,02,22,02,30,-1.20
2011,02,22,02,31,-1.20
2011,02,22,02,32,-1.20
2011,02,22,02,33,-1.30
2011,02,22,02,34,-1.30
2011,02,22,02,35,-1.30
2011,02,22,02,36,-1.30
2011,02,22,02,37,-1.30
2011,02,22,02,38,-1.30
2011,02,22,02,39,-1.30
2011,02,22,02,40,-1.30
2011,02,22,02,41,-1.30
2011,02,22,02,42,-1.30
2011,02,22,02,43,-1.20
2011,02,22,02,44,-1.20
2011,02,22,02,45,-1.20
2011,02,22,02,46,-1.20
2011,02,22,02,47,-1.20
2011,02,22,02,48,-1.20
2011,02,22,02,49,-1.20
2011,02,22,02,50,-1.20
2011,02,22,02,51,-1.20
2011,02,22,02,52,-1.20
2011,02,22,02,53,-1.10
2011,02,22,02,54,-1.10
2011,02,22,02,55,-1.10
2011,02,22,02,56,-1.10
2011,02,22,02,57,-1.10
2011,02,22,02,58,-1.20
2011,02,22,02,59,-1.20
2011,02,22,03,00,-1.30
2011,02,22,03,01,-1.30
2011,02,22,03,02,-1.30
2011,02,22,03,06,-1.40
2011,02,22,03,07,-1.40
2011,02,22,03,08,-1.50
2011,02,22,03,09,-1.50
2011,02,22,03,10,-1.50
2011,02,22,03,11,-1.50
2011,02,22,03,12,-1.60
2011,02,22,03,13,-1.60
2011,02,22,03,14,-1.50
2011,02,22,03,15,-1.50
2011,02,22,03,16,-1.40
2011,02,22,03,17,-1.40
2011,02,22,03,18,-1.30
2011,02,22,03,19,-1.30
2011,02,22,03,20,-1.20
2011,02,22,03,21,-1.10
2011,02,22,03,22,-1.10
2011,02,22,03,23,-1.00
2011,02,22,03,24,-1.00
2011,02,22,03,25,-0.90
2011,02,22,03,26,-0.90
2011,02,22,03,27,-0.90
2011,02,22,03,28,-0.90
2011,02,22,03,29,-0.80
2011,02,22,03,30,-0.80
2011,02,22,03,31,-0.80
2011,02,22,03,32,-0.80
2011,02,22,03,33,-0.80
2011,02,22,03,34,-0.90
2011,02,22,03,35,-0.90
2011,02,22,03,36,-0.90
2011,02,22,03,37,-1.00
2011,02,22,03,38,-1.00
2011,02,22,03,39,-1.00
2011,02,22,03,40,-1.10
2011,02,22,03,41,-1.10
2011,02,22,03,42,-1.10
2011,02,22,03,43,-1.10
2011,02,22,03,44,-1.10
2011,02,22,03,45,-1.10
2011,02,22,03,46,-1.10
2011,02,22,03,47,-1.10
2011,02,22,03,48,-1.10
2011,02,22,03,49,-1.10
2011,02,22,03,50,-1.10
2011,02,22,03,51,-1.20
2011,02,22,03,52,-1.20
2011,02,22,03,53,-1.20
2011,02,22,03,54,-1.20
2011,02,22,03,55,-1.20
2011,02,22,03,56,-1.20
2011,02,22,03,57,-1.20
2011,02,22,03,58,-1.20
2011,02,22,03,59,-1.20
2011,02,22,04,00,-1.20
2011,02,22,04,01,-1.20
2011,02,22,04,02,-1.20
2011,02,22,04,05,-1.10
2011,02,22,04,06,-1.10
2011,02,22,04,07,-1.10
2011,02,22,04,08,-1.00
2011,02,22,04,09,-1.00
2011,02,22,04,10,-1.00
2011,02,22,04,11,-1.00
2011,02,22,04,12,-1.00
2011,02,22,04,13,-1.00
2011,02,22,04,14,-1.00
2011,02,22,04,15,-1.00
2011,02,22,04,16,-1.00
2011,02,22,04,17,-1.00
2011,02,22,04,18,-1.00
2011,02,22,04,19,-1.00
2011,02,22,04,20,-1.00
2011,02,22,04,21,-1.00
2011,02,22,04,22,-1.00
2011,02,22,04,23,-1.00
2011,02,22,04,24,-1.00
2011,02,22,04,25,-1.00
2011,02,22,04,26,-1.00
2011,02,22,04,27,-0.90
2011,02,22,04,28,-0.90
2011,02,22,04,29,-1.00
2011,02,22,04,30,-1.00
2011,02,22,04,31,-1.00
2011,02,22,04,32,-1.00
2011,02,22,04,33,-1.00
2011,02,22,04,34,-1.00
2011,02,22,04,35,-1.00
2011,02,22,04,36,-1.00
2011,02,22,04,37,-1.00
2011,02,22,04,38,-1.00
2011,02,22,04,39,-1.00
2011,02,22,04,40,-1.00
2011,02,22,04,41,-1.00
2011,02,22,04,42,-1.00
2011,02,22,04,43,-1.00
2011,02,22,04,44,-1.00
2011,02,22,04,45,-1.00
2011,02,22,04,46,-0.90
2011,02,22,04,47,-0.90
2011,02,22,04,48,-0.90
2011,02,22,04,49,-0.90
2011,02,22,04,50,-0.90
2011,02,22,04,51,-0.90
2011,02,22,04,52,-0.90
2011,02,22,04,53,-0.90
2011,02,22,04,54,-0.90
2011,02,22,04,55,-0.80
2011,02,22,04,56,-0.80
2011,02,22,04,57,-0.80
2011,02,22,04,58,-0.80
2011,02,22,05,01,-0.90
2011,02,22,05,02,-0.90
2011,02,22,05,03,-0.90
2011,02,22,05,04,-0.90
2011,02,22,05,05,-0.90
2011,02,22,05,06,-0.80
2011,02,22,05,07,-0.80
2011,02,22,05,08,-0.80
2011,02,22,05,09,-0.90
2011,02,22,05,10,-0.90
2011,02,22,05,11,-0.90
2011,02,22,05,12,-0.90
2011,02,22,05,13,-0.80
2011,02,22,05,14,-0.80
2011,02,22,05,15,-0.80
2011,02,22,05,16,-0.80
2011,02,22,05,17,-0.80
2011,02,22,05,18,-0.80
2011,02,22,05,19,-0.80
2011,02,22,05,20,-0.80
2011,02,22,05,21,-0.80
2011,02,22,05,22,-0.80
2011,02,22,05,23,-0.80
2011,02,22,05,24,-0.80
2011,02,22,05,25,-0.80
2011,02,22,05,26,-0.80
2011,02,22,05,27,-0.80
2011,02,22,05,28,-0.80
2011,02,22,05,29,-0.70
2011,02,22,05,30,-0.70
2011,02,22,05,31,-0.70
2011,02,22,05,32,-0.70
2011,02,22,05,33,-0.70
2011,02,22,05,34,-0.70
2011,02,22,05,35,-0.60
2011,02,22,05,36,-0.60
2011,02,22,05,37,-0.60
2011,02,22,05,38,-0.50
2011,02,22,05,39,-0.50
2011,02,22,05,40,-0.40
2011,02,22,05,41,-0.40
2011,02,22,05,42,-0.40
2011,02,22,05,43,-0.40
2011,02,22,05,44,-0.30
2011,02,22,05,45,-0.30
2011,02,22,05,46,-0.30
2011,02,22,05,47,-0.30
2011,02,22,05,48,-0.30
2011,02,22,05,49,-0.30
2011,02,22,05,50,-0.30
2011,02,22,05,51,-0.20
2011,02,22,05,52,-0.20
2011,02,22,05,53,-0.20
2011,02,22,05,54,-0.20
2011,02,22,05,55,-0.20
2011,02,22,05,56,-0.20
2011,02,22,05,57,-0.20
2011,02,22,05,58,-0.20
2011,02,22,05,59,-0.20
2011,02,22,06,00,-0.20
2011,02,22,06,01,-0.20
2011,02,22,06,02,-0.20
2011,02,22,06,03,-0.20
2011,02,22,06,04,-0.20
2011,02,22,06,05,-0.10
2011,02,22,06,06,-0.10
2011,02,22,06,07,-0.10
2011,02,22,06,08,-0.10
2011,02,22,06,09,0.00
2011,02,22,06,10,0.00
2011,02,22,06,11,0.10
2011,02,22,06,12,0.10
2011,02,22,06,13,0.10
2011,02,22,06,14,0.20
2011,02,22,06,15,0.20
2011,02,22,06,16,0.30
2011,02,22,06,17,0.40
2011,02,22,06,18,0.40
2011,02,22,06,19,0.50
2011,02,22,06,20,0.60
2011,02,22,06,21,0.70
2011,02,22,06,22,0.80
2011,02,22,06,23,0.90
2011,02,22,06,24,0.90
2011,02,22,06,25,1.00
2011,02,22,06,26,1.10
2011,02,22,06,27,1.20
2011,02,22,06,28,1.20
2011,02,22,06,29,1.30
2011,02,22,06,30,1.30
2011,02,22,06,31,1.40
2011,02,22,06,32,1.50
2011,02,22,06,33,1.50
2011,02,22,06,34,1.60
2011,02,22,06,35,1.60
2011,02,22,06,36,1.70
2011,02,22,06,37,1.70
2011,02,22,06,38,1.80
2011,02,22,06,39,1.90
2011,02,22,06,40,1.90
2011,02,22,06,41,1.90
2011,02,22,06,42,2.00
2011,02,22,06,43,2.00
2011,02,22,06,44,2.00
2011,02,22,06,45,2.00
2011,02,22,06,46,2.10
2011,02,22,06,47,2.10
2011,02,22,06,48,2.10
2011,02,22,06,49,2.10
2011,02,22,06,50,2.00
2011,02,22,06,51,2.00
2011,02,22,06,52,2.00
2011,02,22,06,53,1.90
2011,02,22,06,54,1.90
2011,02,22,06,55,1.90
2011,02,22,06,56,1.90
2011,02,22,06,57,1.90
2011,02,22,06,58,1.90
2011,02,22,06,59,1.80
2011,02,22,07,00,1.80
2011,02,22,07,01,1.90
2011,02,22,07,02,1.90
2011,02,22,07,03,1.90
2011,02,22,07,04,1.90
2011,02,22,07,05,1.90
2011,02,22,07,06,2.00
2011,02,22,07,07,2.00
2011,02,22,07,08,2.00
2011,02,22,07,09,2.00
2011,02,22,07,10,2.00
2011,02,22,07,11,2.00
2011,02,22,07,12,2.00
2011,02,22,07,13,2.00
2011,02,22,07,14,2.00
2011,02,22,07,15,2.00
2011,02,22,07,16,2.00
2011,02,22,07,17,2.00
2011,02,22,07,18,2.00
2011,02,22,07,19,1.90
2011,02,22,07,20,1.90
2011,02,22,07,21,1.90
2011,02,22,07,22,1.80
2011,02,22,07,23,1.80
2011,02,22,07,24,1.80
2011,02,22,07,25,1.80
2011,02,22,07,26,1.80
2011,02,22,07,27,1.80
2011,02,22,07,28,1.80
2011,02,22,07,29,1.80
2011,02,22,07,30,1.80
2011,02,22,07,31,1.80
2011,02,22,07,32,1.70
2011,02,22,07,33,1.70
2011,02,22,07,34,1.70
2011,02,22,07,35,1.70
2011,02,22,07,36,1.70
2011,02,22,07,37,1.70
2011,02,22,07,38,1.70
2011,02,22,07,39,1.70
2011,02,22,07,40,1.70
2011,02,22,07,41,1.80
2011,02,22,07,42,1.80
2011,02,22,07,43,1.80
2011,02,22,07,44,1.90
2011,02,22,07,45,1.90
2011,02,22,07,46,2.00
2011,02,22,07,47,2.00
2011,02,22,07,48,2.10
2011,02,22,07,49,2.20
2011,02,22,07,50,2.10
2011,02,22,07,51,2.20
2011,02,22,07,52,2.20
2011,02,22,07,53,2.20
2011,02,22,07,54,2.20
2011,02,22,07,55,2.20
2011,02,22,07,56,2.20
2011,02,22,07,57,2.20
2011,02,22,07,58,2.20
2011,02,22,07,59,2.20
2011,02,22,08,00,2.20
2011,02,22,08,01,2.20
2011,02,22,08,02,2.20
2011,02,22,08,03,2.20
2011,02,22,08,04,2.30
2011,02,22,08,05,2.30
2011,02,22,08,06,2.30
2011,02,22,08,07,2.30
2011,02,22,08,08,2.30
2011,02,22,08,09,2.30
2011,02,22,08,10,2.30
2011,02,22,08,11,2.30
2011,02,22,08,12,2.40
2011,02,22,08,13,2.40
2011,02,22,08,14,2.40
2011,02,22,08,15,2.40
2011,02,22,08,16,2.40
2011,02,22,08,17,2.40
2011,02,22,08,18,2.40
2011,02,22,08,19,2.30
2011,02,22,08,20,2.30
2011,02,22,08,21,2.30
2011,02,22,08,22,2.30
2011,02,22,08,23,2.30
2011,02,22,08,24,2.30
2011,02,22,08,25,2.30
2011,02,22,08,26,2.30
2011,02,22,08,27,2.30
2011,02,22,08,28,2.30
2011,02,22,08,29,2.30
2011,02,22,08,30,2.30
2011,02,22,08,31,2.30
2011,02,22,08,32,2.30
2011,02,22,08,33,2.30
2011,02,22,08,34,2.30
2011,02,22,08,35,2.30
2011,02,22,08,36,2.30
2011,02,22,08,37,2.30
2011,02,22,08,38,2.30
2011,02,22,08,39,2.30
2011,02,22,08,40,2.30
2011,02,22,08,41,2.30
2011,02,22,08,42,2.40
2011,02,22,08,43,2.40
2011,02,22,08,44,2.40
2011,02,22,08,45,2.40
2011,02,22,08,46,2.40
2011,02,22,08,47,2.40
2011,02,22,08,48,2.40
2011,02,22,08,49,2.50
2011,02,22,08,50,2.50
2011,02,22,08,51,2.50
2011,02,22,08,52,2.50
2011,02,22,08,53,2.50
2011,02,22,08,54,2.50
2011,02,22,08,55,2.60
2011,02,22,08,56,2.60
2011,02,22,08,57,2.50
2011,02,22,08,58,2.50
2011,02,22,08,59,2.50
2011,02,22,09,00,2.50
2011,02,22,09,01,2.40
2011,02,22,09,02,2.40
2011,02,22,09,03,2.40
2011,02,22,09,04,2.40
2011,02,22,09,05,2.40
2011,02,22,09,06,2.40
2011,02,22,09,07,2.30
2011,02,22,09,08,2.30
2011,02,22,09,09,2.30
2011,02,22,09,10,2.30
2011,02,22,09,11,2.30
2011,02,22,09,12,2.30
2011,02,22,09,13,2.30
2011,02,22,09,14,2.40
2011,02,22,09,15,2.40
2011,02,22,09,16,2.40
2011,02,22,09,17,2.50
2011,02,22,09,18,2.50
2011,02,22,09,19,2.60
2011,02,22,09,20,2.60
2011,02,22,09,21,2.60
2011,02,22,09,22,2.60
2011,02,22,09,23,2.60
2011,02,22,09,24,2.60
2011,02,22,09,25,2.60
2011,02,22,09,26,2.60
2011,02,22,09,27,2.60
2011,02,22,09,28,2.60
2011,02,22,09,29,2.60
2011,02,22,09,30,2.60
2011,02,22,09,31,2.50
2011,02,22,09,32,2.60
2011,02,22,09,33,2.60
2011,02,22,09,34,2.60
2011,02,22,09,35,2.60
2011,02,22,09,36,2.70
2011,02,22,09,37,2.70
2011,02,22,09,38,2.80
2011,02,22,09,39,2.80
2011,02,22,09,40,2.90
2011,02,22,09,41,2.90
2011,02,22,09,42,3.00
2011,02,22,09,43,3.00
2011,02,22,09,44,3.10
2011,02,22,09,45,3.10
2011,02,22,09,46,3.20
2011,02,22,09,47,3.20
2011,02,22,09,48,3.20
2011,02,22,09,49,3.30
2011,02,22,09,50,3.30
2011,02,22,09,51,3.30
2011,02,22,09,52,3.30
2011,02,22,09,53,3.30
2011,02,22,09,54,3.30
2011,02,22,09,55,3.30
2011,02,22,09,56,3.20
2011,02,22,09,57,3.20
2011,02,22,09,58,3.20
2011,02,22,09,59,3.20
2011,02,22,10,00,3.20
2011,02,22,10,01,3.20
2011,02,22,10,02,3.20
2011,02,22,10,03,3.20
2011,02,22,10,04,3.20
2011,02,22,10,05,3.30
2011,02,22,10,06,3.30
2011,02,22,10,07,3.40
2011,02,22,10,08,3.40
2011,02,22,10,09,3.50
2011,02,22,10,10,3.50
2011,02,22,10,11,3.50
2011,02,22,10,12,3.50
2011,02,22,10,13,3.60
2011,02,22,10,14,3.60
2011,02,22,10,15,3.60
2011,02,22,10,16,3.70
2011,02,22,10,17,3.70
2011,02,22,10,18,3.70
2011,02,22,10,19,3.70
2011,02,22,10,20,3.70
2011,02,22,10,21,3.70
2011,02,22,10,22,3.70
2011,02,22,10,23,3.80
2011,02,22,10,24,3.80
2011,02,22,10,25,3.80
2011,02,22,10,26,3.80
2011,02,22,10,27,3.90
2011,02,22,10,28,3.90
2011,02,22,10,29,3.90
2011,02,22,10,30,3.90
2011,02,22,10,31,3.90
2011,02,22,10,32,3.90
2011,02,22,10,33,3.90
2011,02,22,10,34,3.90
2011,02,22,10,35,3.90
2011,02,22,10,36,4.00
2011,02,22,10,37,4.00
2011,02,22,10,38,4.00
2011,02,22,10,39,4.10
2011,02,22,10,40,4.10
2011,02,22,10,41,4.10
2011,02,22,10,42,4.00
2011,02,22,10,43,4.10
2011,02,22,10,44,4.10
2011,02,22,10,45,4.10
2011,02,22,10,46,4.10
2011,02,22,10,47,4.20
2011,02,22,10,48,4.20
2011,02,22,10,49,4.20
2011,02,22,10,50,4.20
2011,02,22,10,51,4.20
2011,02,22,10,52,4.30
2011,02,22,10,53,4.30
2011,02,22,10,54,4.40
2011,02,22,10,55,4.40
2011,02,22,10,56,4.40
2011,02,22,10,57,4.40
2011,02,22,10,58,4.40
2011,02,22,10,59,4.40
2011,02,22,11,00,4.40
2011,02,22,11,01,4.30
2011,02,22,11,02,4.40
2011,02,22,11,03,4.40
2011,02,22,11,04,4.30
2011,02,22,11,05,4.30
2011,02,22,11,06,4.40
2011,02,22,11,07,4.40
2011,02,22,11,08,4.40
2011,02,22,11,09,4.40
2011,02,22,11,10,4.40
2011,02,22,11,11,4.40
2011,02,22,11,12,4.50
2011,02,22,11,13,4.50
2011,02,22,11,14,4.60
2011,02,22,11,15,4.60
2011,02,22,11,16,4.70
2011,02,22,11,17,4.70
2011,02,22,11,18,4.60
2011,02,22,11,19,4.60
2011,02,22,11,20,4.50
2011,02,22,11,21,4.50
2011,02,22,11,22,4.50
2011,02,22,11,23,4.50
2011,02,22,11,24,4.50
2011,02,22,11,25,4.50
2011,02,22,11,26,4.50
2011,02,22,11,27,4.60
2011,02,22,11,28,4.60
2011,02,22,11,29,4.60
2011,02,22,11,30,4.60
2011,02,22,11,31,4.70
2011,02,22,11,32,4.60
2011,02,22,11,33,4.60
2011,02,22,11,34,4.60
2011,02,22,11,35,4.60
2011,02,22,11,36,4.60
2011,02,22,11,37,4.60
2011,02,22,11,38,4.60
2011,02,22,11,39,4.60
2011,02,22,11,40,4.60
2011,02,22,11,41,4.60
2011,02,22,11,42,4.60
2011,02,22,11,43,4.70
2011,02,22,11,44,4.70
2011,02,22,11,45,4.70
2011,02,22,11,46,4.70
2011,02,22,11,47,4.70
2011,02,22,11,48,4.80
2011,02,22,11,49,4.80
2011,02,22,11,50,4.80
2011,02,22,11,51,4.90
2011,02,22,11,52,4.90
2011,02,22,11,53,4.90
2011,02,22,11,54,4.80
2011,02,22,11,55,4.80
2011,02,22,11,56,4.90
2011,02,22,11,57,5.00
2011,02,22,11,58,5.10
2011,02,22,11,59,5.10
2011,02,22,12,00,5.10
2011,02,22,12,01,5.10
2011,02,22,12,02,5.10
2011,02,22,12,03,5.10
2011,02,22,12,04,5.10
2011,02,22,12,05,5.10
2011,02,22,12,06,5.10
2011,02,22,12,07,5.00
2011,02,22,12,08,4.90
2011,02,22,12,09,4.90
2011,02,22,12,10,4.80
2011,02,22,12,11,4.80
2011,02,22,12,12,4.90
2011,02,22,12,13,4.90
2011,02,22,12,14,4.90
2011,02,22,12,15,5.00
2011,02,22,12,16,5.00
2011,02,22,12,17,5.10
2011,02,22,12,18,5.10
2011,02,22,12,19,5.10
2011,02,22,12,20,5.10
2011,02,22,12,21,5.10
2011,02,22,12,22,5.10
2011,02,22,12,23,5.10
2011,02,22,12,24,5.10
2011,02,22,12,25,5.20
2011,02,22,12,26,5.10
2011,02,22,12,27,5.10
2011,02,22,12,28,5.10
2011,02,22,12,29,5.10
2011,02,22,12,30,5.10
2011,02,22,12,31,5.10
2011,02,22,12,32,5.20
2011,02,22,12,33,5.20
2011,02,22,12,34,5.20
2011,02,22,12,35,5.20
2011,02,22,12,36,5.30
2011,02,22,12,37,5.30
2011,02,22,12,38,5.30
2011,02,22,12,39,5.30
2011,02,22,12,40,5.30
2011,02,22,12,41,5.30
2011,02,22,12,42,5.30
2011,02,22,12,43,5.30
2011,02,22,12,44,5.40
2011,02,22,12,45,5.40
2011,02,22,12,46,5.40
2011,02,22,12,47,5.40
2011,02,22,12,48,5.40
2011,02,22,12,49,5.40
2011,02,22,12,50,5.40
2011,02,22,12,51,5.30
2011,02,22,12,52,5.40
2011,02,22,12,53,5.40
2011,02,22,12,54,5.40
2011,02,22,12,55,5.50
2011,02,22,12,56,5.60
2011,02,22,12,57,5.70
2011,02,22,12,58,5.70
2011,02,22,12,59,5.70
2011,02,22,13,00,5.60
2011,02,22,13,01,5.60
2011,02,22,13,02,5.70
2011,02,22,13,03,5.70
2011,02,22,13,04,5.70
2011,02,22,13,05,5.70
2011,02,22,13,06,5.70
2011,02,22,13,07,5.70
2011,02,22,13,08,5.70
2011,02,22,13,09,5.70
2011,02,22,13,13,5.60
2011,02,22,13,14,5.60
2011,02,22,13,15,5.50
2011,02,22,13,16,5.50
2011,02,22,13,17,5.50
2011,02,22,13,18,5.50
2011,02,22,13,19,5.50
2011,02,22,13,20,5.50
2011,02,22,13,21,5.60
2011,02,22,13,22,5.60
2011,02,22,13,23,5.60
2011,02,22,13,24,5.70
2011,02,22,13,25,5.60
2011,02,22,13,26,5.50
2011,02,22,13,27,5.50
2011,02,22,13,28,5.50
2011,02,22,13,29,5.50
2011,02,22,13,30,5.60
2011,02,22,13,31,5.60
2011,02,22,13,32,5.70
2011,02,22,13,33,5.70
2011,02,22,13,34,5.70
2011,02,22,13,35,5.80
2011,02,22,13,36,5.80
2011,02,22,13,37,5.80
2011,02,22,13,38,5.80
2011,02,22,13,39,5.70
2011,02,22,13,40,5.70
2011,02,22,13,41,5.80
2011,02,22,13,42,5.80
2011,02,22,13,43,5.80
2011,02,22,13,44,5.90
2011,02,22,13,45,5.80
2011,02,22,13,46,5.80
2011,02,22,13,47,5.80
2011,02,22,13,48,5.80
2011,02,22,13,49,5.80
2011,02,22,13,50,5.90
2011,02,22,13,51,5.90
2011,02,22,13,52,5.90
2011,02,22,13,53,5.90
2011,02,22,13,54,5.90
2011,02,22,13,55,6.00
2011,02,22,13,56,6.00
2011,02,22,13,57,5.90
2011,02,22,13,58,5.90
2011,02,22,13,59,5.80
2011,02,22,14,00,5.80
2011,02,22,14,01,5.70
2011,02,22,14,02,5.70
2011,02,22,14,03,5.70
2011,02,22,14,04,5.80
2011,02,22,14,05,5.80
2011,02,22,14,06,5.80
2011,02,22,14,07,5.80
2011,02,22,14,08,5.80
2011,02,22,14,09,5.80
2011,02,22,14,10,5.80
2011,02,22,14,11,5.80
2011,02,22,14,12,5.80
2011,02,22,14,13,5.80
2011,02,22,14,14,5.70
2011,02,22,14,15,5.70
2011,02,22,14,16,5.70
2011,02,22,14,17,5.70
2011,02,22,14,18,5.70
2011,02,22,14,19,5.70
2011,02,22,14,20,5.70
2011,02,22,14,21,5.70
2011,02,22,14,22,5.70
2011,02,22,14,23,5.70
2011,02,22,14,24,5.70
2011,02,22,14,25,5.70
2011,02,22,14,26,5.70
2011,02,22,14,27,5.70
2011,02,22,14,28,5.70
2011,02,22,14,29,5.80
2011,02,22,14,30,5.80
2011,02,22,14,31,5.80
2011,02,22,14,32,5.80
2011,02,22,14,33,5.90
2011,02,22,14,34,5.90
2011,02,22,14,35,5.90
2011,02,22,14,36,5.90
2011,02,22,14,37,5.80
2011,02,22,14,38,5.80
2011,02,22,14,39,5.80
2011,02,22,14,40,5.80
2011,02,22,14,41,5.80
2011,02,22,14,42,5.80
2011,02,22,14,43,5.80
2011,02,22,14,44,5.80
2011,02,22,14,45,5.80
2011,02,22,14,46,5.80
2011,02,22,14,47,5.80
2011,02,22,14,48,5.70
2011,02,22,14,49,5.70
2011,02,22,14,50,5.70
2011,02,22,14,51,5.70
2011,02,22,14,52,5.70
2011,02,22,14,53,5.70
2011,02,22,14,54,5.70
2011,02,22,14,55,5.80
2011,02,22,14,56,5.80
2011,02,22,14,57,5.90
2011,02,22,14,58,5.90
2011,02,22,14,59,5.90
2011,02,22,15,00,5.90
2011,02,22,15,01,5.90
2011,02,22,15,02,5.90
2011,02,22,15,03,5.90
2011,02,22,15,04,5.90
2011,02,22,15,05,5.90
2011,02,22,15,06,5.90
2011,02,22,15,07,5.90
2011,02,22,15,08,5.90
2011,02,22,15,09,5.80
2011,02,22,15,10,5.70
2011,02,22,15,11,5.70
2011,02,22,15,12,5.60
2011,02,22,15,13,5.60
2011,02,22,15,14,5.60
2011,02,22,15,15,5.60
2011,02,22,15,16,5.60
2011,02,22,15,17,5.70
2011,02,22,15,18,5.80
2011,02,22,15,19,5.80
2011,02,22,15,20,5.80
2011,02,22,15,21,5.80
2011,02,22,15,22,5.80
2011,02,22,15,23,5.80
2011,02,22,15,24,5.80
2011,02,22,15,25,5.80
2011,02,22,15,26,5.80
2011,02,22,15,27,5.90
2011,02,22,15,28,6.00
2011,02,22,15,29,6.00
2011,02,22,15,30,6.00
2011,02,22,15,31,5.90
2011,02,22,15,32,5.90
2011,02,22,15,33,5.80
2011,02,22,15,34,5.90
2011,02,22,15,35,5.90
2011,02,22,15,36,5.80
2011,02,22,15,37,5.80
2011,02,22,15,38,5.80
2011,02,22,15,39,5.80
2011,02,22,15,40,5.80
2011,02,22,15,41,5.80
2011,02,22,15,42,5.80
2011,02,22,15,43,5.80
2011,02,22,15,44,5.80
2011,02,22,15,48,5.80
2011,02,22,15,49,5.80
2011,02,22,15,50,5.80
2011,02,22,15,51,5.80
2011,02,22,15,52,5.80
2011,02,22,15,53,5.80
2011,02,22,15,54,5.80
2011,02,22,15,55,5.80
2011,02,22,15,56,5.80
2011,02,22,15,57,5.80
2011,02,22,15,58,5.70
2011,02,22,15,59,5.70
2011,02,22,16,00,5.60
2011,02,22,16,01,5.60
2011,02,22,16,02,5.60
2011,02,22,16,03,5.60
2011,02,22,16,04,5.50
2011,02,22,16,05,5.40
2011,02,22,16,06,5.30
2011,02,22,16,07,5.20
2011,02,22,16,08,5.20
2011,02,22,16,09,5.20
2011,02,22,16,10,5.10
2011,02,22,16,11,5.10
2011,02,22,16,12,5.10
2011,02,22,16,13,5.10
2011,02,22,16,14,5.20
2011,02,22,16,15,5.10
2011,02,22,16,16,5.20
2011,02,22,16,17,5.20
2011,02,22,16,18,5.10
2011,02,22,16,19,5.10
2011,02,22,16,20,5.10
2011,02,22,16,21,5.10
2011,02,22,16,22,5.10
2011,02,22,16,23,5.10
2011,02,22,16,24,5.10
2011,02,22,16,25,5.00
2011,02,22,16,26,4.90
2011,02,22,16,27,4.80
2011,02,22,16,28,4.70
2011,02,22,16,29,4.60
2011,02,22,16,30,4.50
2011,02,22,16,31,4.50
2011,02,22,16,32,4.40
2011,02,22,16,33,4.30
2011,02,22,16,34,4.30
2011,02,22,16,35,4.30
2011,02,22,16,36,4.20
2011,02,22,16,37,4.20
2011,02,22,16,38,4.20
2011,02,22,16,39,4.20
2011,02,22,16,40,4.10
2011,02,22,16,41,4.10
2011,02,22,16,42,4.10
2011,02,22,16,43,4.10
2011,02,22,16,44,4.00
2011,02,22,16,45,4.00
2011,02,22,16,46,4.10
2011,02,22,16,47,4.10
2011,02,22,16,48,4.10
2011,02,22,16,49,4.10
2011,02,22,16,50,4.10
2011,02,22,16,51,4.10
2011,02,22,16,52,4.10
2011,02,22,16,53,4.10
2011,02,22,16,54,4.10
2011,02,22,16,55,4.10
2011,02,22,16,56,4.10
2011,02,22,16,57,4.10
2011,02,22,16,58,4.10
2011,02,22,16,59,4.10
2011,02,22,17,00,4.00
2011,02,22,17,01,4.00
2011,02,22,17,02,4.00
2011,02,22,17,03,4.00
2011,02,22,17,04,4.00
2011,02,22,17,05,4.00
2011,02,22,17,06,4.00
2011,02,22,17,07,3.90
2011,02,22,17,08,3.90
2011,02,22,17,09,3.90
2011,02,22,17,10,3.90
2011,02,22,17,11,3.90
2011,02,22,17,12,3.90
2011,02,22,17,13,3.90
2011,02,22,17,16,3.90
2011,02,22,17,19,3.80
2011,02,22,17,20,3.80
2011,02,22,17,21,3.80
2011,02,22,17,22,3.80
2011,02,22,17,23,3.80
2011,02,22,17,24,3.80
2011,02,22,17,25,3.80
2011,02,22,17,26,3.80
2011,02,22,17,27,3.80
2011,02,22,17,28,3.80
2011,02,22,17,29,3.80
2011,02,22,17,30,3.80
2011,02,22,17,31,3.80
2011,02,22,17,32,3.80
2011,02,22,17,33,3.80
2011,02,22,17,34,3.80
2011,02,22,17,35,3.80
2011,02,22,17,36,3.80
2011,02,22,17,37,3.80
2011,02,22,17,38,3.80
2011,02,22,17,39,3.80
2011,02,22,17,40,3.80
2011,02,22,17,41,3.80
2011,02,22,17,42,3.80
2011,02,22,17,43,3.80
2011,02,22,17,44,3.80
2011,02,22,17,45,3.80
2011,02,22,17,46,3.80
2011,02,22,17,47,3.80
2011,02,22,17,48,3.80
2011,02,22,17,49,3.80
2011,02,22,17,50,3.80
2011,02,22,17,51,3.80
2011,02,22,17,52,3.80
2011,02,22,17,53,3.70
2011,02,22,17,54,3.70
2011,02,22,17,55,3.70
2011,02,22,17,56,3.70
2011,02,22,17,57,3.70
2011,02,22,17,58,3.70
2011,02,22,17,59,3.70
2011,02,22,18,00,3.70
2011,02,22,18,01,3.70
2011,02,22,18,02,3.70
2011,02,22,18,03,3.70
2011,02,22,18,04,3.70
2011,02,22,18,05,3.70
2011,02,22,18,06,3.70
2011,02,22,18,07,3.60
2011,02,22,18,08,3.60
2011,02,22,18,09,3.60